Location: Alincthun
(50.7310°N, 1.8022°E)
Time: 06:12:19
(UTC+00:00)

Okean O Rocket - Pass Details

Date: 17 February 2020
Orbit: 622 x 645 km, 98.2° (Epoch: 28 March)

Event Time Altitude Azimuth Distance (km) Brightness Sun altitude
Rises 04:55:21 0° 23° (NNE) 2,940 5.4 -20.7°
Reaches altitude 10° 04:57:52 10° 36° (NE) 2,023 4.7 -20.3°
Maximum altitude 05:01:36 27° 94° (E) 1,222 3.8 -19.7°
Drops below altitude 10° 05:05:18 10° 153° (SSE) 1,997 4.4 -19.1°
Sets 05:07:45 0° 165° (SSE) 2,896 5.1 -18.7°
